Powrót do katalogu

STARLINK-32927

AktywnyŁącznośćVLEO
NORAD 63094·PAYLOAD·🇺🇸 United States

Wystrzelony Feb 23, 2025 z Vandenberg Space Force Base

Loading…

Następne Przeloty (najbliższe 24 godziny)

TLE

ŚwieżeSource: CelesTrak SupGP

Epoka: Sep 15, 2026, 02:16 UTC

1 63094C 25037T   26258.09493056 -.00038915  00000+0 -13538-2 0  2585
2 63094  70.0007 235.1060 0003433 266.5935 256.2235 15.29594975    16

Śledź STARLINK-32927 w czasie rzeczywistym z AllMySat

Download on the App Store